• In Russia
  • List of Countries
  • For 7 days
  • Water Temperature
  • Satellite Maps
  • Weather Map
  • Weather Widgets
  • user-avatar
    Login

    Hourly Weather Ganja

    Today, 27 March, Monday

    Time Temperature Precipitation Wind Pressure Humidity
    00:00 +8°C° 0 mm 2 mps 724 mmHg 59%
    01:00 +8°C° 0 mm 2 mps 724 mmHg 60%
    02:00 +8°C° 0 mm 2 mps 724 mmHg 60%
    03:00 +8°C° 0 mm 2 mps 723 mmHg 61%
    04:00 +8°C° 0 mm 2 mps 723 mmHg 62%
    05:00 +8°C° 0 mm 2 mps 723 mmHg 63%
    06:00 +7°C° 0 mm 2 mps 723 mmHg 64%
    07:00 +10°C° 0 mm 2 mps 723 mmHg 58%
    08:00 +13°C° 0 mm 2 mps 723 mmHg 51%
    09:00 +16°C° 0 mm 2 mps 723 mmHg 44%
    10:00 +17°C° 0 mm 3 mps 722 mmHg 42%
    11:00 +18°C° 0 mm 3 mps 722 mmHg 40%
    12:00 +19°C° 0 mm 3 mps 722 mmHg 38%
    13:00 +19°C° 0 mm 3 mps 721 mmHg 38%
    14:00 +20°C° 0 mm 3 mps 721 mmHg 37%
    15:00 +20°C° 0 mm 3 mps 720 mmHg 36%
    16:00 +18°C° 0 mm 3 mps 720 mmHg 42%
    17:00 +16°C° 0 mm 2 mps 720 mmHg 47%
    18:00 +14°C° 0 mm 2 mps 721 mmHg 52%
    19:00 +13°C° 0 mm 2 mps 721 mmHg 54%
    20:00 +13°C° 0 mm 2 mps 721 mmHg 55%
    21:00 +12°C° 0 mm 2 mps 721 mmHg 57%
    22:00 +10°C° 0 mm 2 mps 721 mmHg 58%
    23:00 +10°C° 0 mm 2 mps 721 mmHg 59%

    Tomorrow, 28 March, Tuesday

    Time Temperature Precipitation Wind Pressure Humidity
    00:00 +9°C° 0 mm 2 mps 721 mmHg 59%
    01:00 +9°C° 0 mm 2 mps 721 mmHg 60%
    02:00 +9°C° 0 mm 2 mps 721 mmHg 61%
    03:00 +9°C° 0 mm 2 mps 721 mmHg 62%
    04:00 +9°C° 0 mm 3 mps 721 mmHg 67%
    05:00 +8°C° 0 mm 3 mps 721 mmHg 71%
    06:00 +7°C° 0 mm 4 mps 722 mmHg 76%
    07:00 +7°C° 0.2 mm 4 mps 722 mmHg 72%
    08:00 +8°C° 0.2 mm 5 mps 723 mmHg 68%
    09:00 +8°C° 0.2 mm 5 mps 723 mmHg 65%
    10:00 +9°C° 0.3 mm 5 mps 723 mmHg 62%
    11:00 +9°C° 0.3 mm 5 mps 723 mmHg 59%
    12:00 +10°C° 0.3 mm 5 mps 724 mmHg 57%
    13:00 +10°C° 0.3 mm 5 mps 723 mmHg 55%
    14:00 +12°C° 0.3 mm 4 mps 723 mmHg 54%
    15:00 +12°C° 0.3 mm 4 mps 723 mmHg 53%
    16:00 +11°C° 0.2 mm 3 mps 724 mmHg 56%
    17:00 +12°C° 0.2 mm 2 mps 724 mmHg 59%
    18:00 +10°C° 0.2 mm 2 mps 725 mmHg 61%
    19:00 +9°C° 0 mm 2 mps 725 mmHg 63%
    20:00 +8°C° 0 mm 2 mps 726 mmHg 64%
    21:00 +7°C° 0 mm 2 mps 726 mmHg 65%
    22:00 +6°C° 0 mm 2 mps 726 mmHg 66%
    23:00 +5°C° 0 mm 3 mps 726 mmHg 67%

    Day after tomorrow, 29 March, Wednesday

    Time Temperature Precipitation Wind Pressure Humidity
    00:00 +4°C° 0 mm 3 mps 726 mmHg 68%
    01:00 +4°C° 0 mm 3 mps 726 mmHg 68%
    02:00 +4°C° 0 mm 4 mps 726 mmHg 68%
    03:00 +4°C° 0 mm 4 mps 725 mmHg 68%
    04:00 +4°C° 0 mm 4 mps 726 mmHg 68%
    05:00 +4°C° 0 mm 4 mps 726 mmHg 68%
    06:00 +4°C° 0 mm 4 mps 726 mmHg 69%
    07:00 +6°C° 0 mm 4 mps 726 mmHg 62%
    08:00 +8°C° 0 mm 4 mps 726 mmHg 56%
    09:00 +10°C° 0 mm 5 mps 726 mmHg 49%
    10:00 +12°C° 0 mm 5 mps 726 mmHg 46%
    11:00 +13°C° 0 mm 5 mps 726 mmHg 42%
    12:00 +15°C° 0 mm 5 mps 725 mmHg 38%
    13:00 +15°C° 0 mm 5 mps 725 mmHg 38%
    14:00 +16°C° 0 mm 5 mps 725 mmHg 37%
    15:00 +16°C° 0 mm 5 mps 725 mmHg 37%
    16:00 +15°C° 0 mm 4 mps 726 mmHg 42%
    17:00 +13°C° 0 mm 3 mps 726 mmHg 47%
    18:00 +12°C° 0 mm 2 mps 727 mmHg 52%
    19:00 +10°C° 0 mm 2 mps 727 mmHg 55%
    20:00 +10°C° 0 mm 1 mps 728 mmHg 57%
    21:00 +9°C° 0 mm 1 mps 729 mmHg 60%
    22:00 +8°C° 0 mm 1 mps 729 mmHg 64%
    23:00 +7°C° 0 mm 2 mps 730 mmHg 67%

    30 March, Thursday

    Time Temperature Precipitation Wind Pressure Humidity
    00:00 +6°C° 0 mm 2 mps 730 mmHg 71%
    01:00 +6°C° 0 mm 2 mps 730 mmHg 76%
    02:00 +5°C° 0 mm 2 mps 730 mmHg 80%
    03:00 +5°C° 0 mm 2 mps 730 mmHg 85%
    04:00 +4°C° 0 mm 2 mps 731 mmHg 86%
    05:00 +5°C° 0 mm 1 mps 731 mmHg 87%
    06:00 +5°C° 0 mm 1 mps 731 mmHg 88%
    07:00 +7°C° 0 mm 1 mps 731 mmHg 80%
    08:00 +8°C° 0 mm 2 mps 731 mmHg 72%
    09:00 +9°C° 0 mm 2 mps 731 mmHg 64%
    10:00 +12°C° 0 mm 2 mps 730 mmHg 61%
    11:00 +13°C° 0 mm 2 mps 729 mmHg 57%
    12:00 +14°C° 0 mm 2 mps 728 mmHg 53%
    13:00 +14°C° 0 mm 2 mps 728 mmHg 53%
    14:00 +15°C° 0 mm 2 mps 727 mmHg 52%
    15:00 +15°C° 0 mm 2 mps 726 mmHg 52%
    16:00 +14°C° 0 mm 1 mps 726 mmHg 58%
    17:00 +12°C° 0 mm 1 mps 726 mmHg 64%
    18:00 +11°C° 0 mm 1 mps 726 mmHg 70%
    19:00 +10°C° 0 mm 1 mps 726 mmHg 72%
    20:00 +9°C° 0 mm 1 mps 727 mmHg 75%
    21:00 +8°C° 0 mm 1 mps 727 mmHg 77%
    22:00 +8°C° 0 mm 1 mps 727 mmHg 74%
    23:00 +8°C° 0 mm 2 mps 727 mmHg 71%

    31 March, Friday

    Time Temperature Precipitation Wind Pressure Humidity
    00:00 +8°C° 0 mm 2 mps 726 mmHg 68%
    01:00 +8°C° 0 mm 3 mps 726 mmHg 66%
    02:00 +7°C° 0 mm 3 mps 726 mmHg 64%
    03:00 +7°C° 0 mm 3 mps 726 mmHg 62%
    04:00 +7°C° 0 mm 3 mps 726 mmHg 61%
    05:00 +7°C° 0 mm 3 mps 726 mmHg 60%
    06:00 +7°C° 0 mm 3 mps 726 mmHg 59%
    07:00 +10°C° 0 mm 3 mps 726 mmHg 53%
    08:00 +12°C° 0 mm 3 mps 726 mmHg 47%
    09:00 +14°C° 0 mm 3 mps 726 mmHg 41%
    10:00 +16°C° 0 mm 3 mps 726 mmHg 39%
    11:00 +17°C° 0 mm 3 mps 726 mmHg 38%
    12:00 +18°C° 0 mm 3 mps 726 mmHg 36%
    13:00 +18°C° 0 mm 3 mps 725 mmHg 37%
    14:00 +18°C° 0 mm 2 mps 725 mmHg 37%
    15:00 +18°C° 0 mm 2 mps 725 mmHg 38%
    16:00 +17°C° 0.1 mm 2 mps 725 mmHg 43%
    17:00 +16°C° 0.1 mm 2 mps 726 mmHg 47%
    18:00 +14°C° 0.1 mm 1 mps 726 mmHg 52%
    19:00 +14°C° 0.2 mm 2 mps 727 mmHg 56%
    20:00 +12°C° 0.2 mm 3 mps 728 mmHg 61%
    21:00 +11°C° 0.2 mm 4 mps 729 mmHg 65%
    22:00 +11°C° 0.3 mm 4 mps 729 mmHg 70%
    23:00 +9°C° 0.3 mm 5 mps 729 mmHg 75%

    1 April, Saturday

    Time Temperature Precipitation Wind Pressure Humidity
    00:00 +8°C° 0.3 mm 5 mps 729 mmHg 81%
    01:00 +8°C° 0.2 mm 5 mps 730 mmHg 82%
    02:00 +7°C° 0.2 mm 5 mps 730 mmHg 83%
    03:00 +7°C° 0.2 mm 5 mps 730 mmHg 84%
    04:00 +6°C° 0.1 mm 5 mps 730 mmHg 84%
    05:00 +6°C° 0.1 mm 5 mps 731 mmHg 84%
    06:00 +5°C° 0.1 mm 5 mps 731 mmHg 83%
    07:00 +5°C° 0 mm 5 mps 731 mmHg 80%
    08:00 +6°C° 0 mm 5 mps 730 mmHg 77%
    09:00 +6°C° 0 mm 5 mps 730 mmHg 74%
    10:00 +6°C° 0.1 mm 5 mps 730 mmHg 72%
    11:00 +7°C° 0.1 mm 5 mps 730 mmHg 70%
    12:00 +7°C° 0.1 mm 5 mps 730 mmHg 68%
    13:00 +7°C° 0.2 mm 5 mps 730 mmHg 68%
    14:00 +7°C° 0.2 mm 4 mps 729 mmHg 69%
    15:00 +7°C° 0.2 mm 4 mps 729 mmHg 69%
    16:00 +7°C° 0.1 mm 3 mps 729 mmHg 72%
    17:00 +7°C° 0.1 mm 3 mps 729 mmHg 75%
    18:00 +6°C° 0.1 mm 2 mps 729 mmHg 78%
    19:00 +6°C° 0.1 mm 2 mps 729 mmHg 81%
    20:00 +5°C° 0.1 mm 2 mps 729 mmHg 83%
    21:00 +6°C° 0.1 mm 1 mps 729 mmHg 85%
    22:00 +5°C° 0 mm 1 mps 728 mmHg 89%
    23:00 +4°C° 0 mm 1 mps 728 mmHg 92%
    Show more